Regional Weather Roundup
Issued by NWS

Home | Current Version | Previous Version | Text Only | Print | Product List | Glossary Off
Versions: 1 2 3 4 5 6 7 8 9 10 11 12 13 14 15 16 17 18 19 20 21 22 23 24 25 26 27 28 29 30 31 32 33 34 35 36 37 38 39 40 41 42 43 44 45 46 47 48 49 50

000
ASUS43 KIND 282009
RWRIN

WEATHER ROUNDUP FOR INDIANA
NATIONAL WEATHER SERVICE INDIANAPOLIS IN
300 PM EST SAT FEB 28 2015

NOTE: "FAIR" INDICATES FEW OR NO CLOUDS BELOW 12,000 FEET WITH NO
SIGNIFICANT WEATHER AND/OR OBSTRUCTIONS TO VISIBILITY.

* - STATION DOES NOT REPORT WEATHER SUCH AS PRECIPITATION OR FOG.

+ - STATION NOT QUALITY CONTROLLED BY THE NATIONAL WEATHER SERVICE.
    USE DATA WITH CAUTION...ESPECIALLY DEWPOINT AND RELATIVE
    HUMIDITY OBSERVATIONS.

INZ001>003-010>013-019-020-282100-
NORTHWEST INDIANA

CITY           SKY/WX    TMP DP  RH WIND       PRES   REMARKS
GARY /AIRPORT/ SUNNY     23  -2  33 S7        30.63F WCI  15
KNOX *+          N/A     21 -15  19 S5        30.61F WCI  15
LA PORTE +     SUNNY     22   4  46 S5        30.61F WCI  16
MICHIGAN CITY+ SUNNY     21  -8  27 S8        30.62F WCI  12
MONTICELLO +   SUNNY     23   8  52 E8        30.60F WCI  14
RENSSELAER +   SUNNY     23  10  58 SE8       30.60F WCI  14
VALPARAISO     SUNNY     19   5  54 E8        30.61F WCI   9

$$

LMZ046-743>745-282100-
SOUTHERN LAKE MICHIGAN

STATION/POSITION TIME  TEMP WIND        PRES
                       AIR  DIR/SP/G
                 (UTC) (F)  (DEG/KT/KT) (MB)
MICHIGAN CITY    2000   19  140/  9/ 12   N/A

$$

INZ004-005-014>016-021>024-282100-
NORTH CENTRAL INDIANA

CITY           SKY/WX    TMP DP  RH WIND       PRES   REMARKS
ELKHART        SUNNY     21  -2  35 S8        30.64F WCI  12
GOSHEN         SUNNY     22   5  48 SE9       30.62F WCI  12
LOGANSPORT +   SUNNY     23   7  50 E12       30.61F WCI  12
PERU/GRISSOM   SUNNY     22   8  54 E8        30.60F WCI  13
ROCHESTER +    SUNNY     27   7  43 E8        30.62F WCI  18
SOUTH BEND     SUNNY     20   4  50 S7        30.63F WCI  11
WARSAW +       SUNNY     23   5  46 E3        30.62F

$$

INZ006>009-017-018-025>027-282100-
NORTHEAST INDIANA

CITY           SKY/WX    TMP DP  RH WIND       PRES   REMARKS
ANGOLA *+      SUNNY     18   3  53 SW8       30.62F WCI   7
AUBURN +       SUNNY     23   3  42 E7        30.65F WCI  15
FORT WAYNE     MOSUNNY   20   4  50 SE9       30.64F WCI   9
HUNTINGTON +   MOSUNNY   21  -1  37 S8        30.62F WCI  12

$$

INZ028-029-035-036-043>045-051>053-282100-
WEST CENTRAL INDIANA

CITY           SKY/WX    TMP DP  RH WIND       PRES   REMARKS
CRAWFORDSVL +  SUNNY     22   2  41 E13       30.57F WCI  10
GREENCASTLE +  MOSUNNY   27   3  36 E10       30.56F WCI  17
LAFAYETTE      SUNNY     25  10  53 E8        30.59F WCI  16
TERRE HAUTE    CLOUDY    27   5  39 SE7       30.56F WCI  19

$$

INZ030>032-037>040-046>048-054>057-064-065-282100-
CENTRAL INDIANA

CITY           SKY/WX    TMP DP  RH WIND       PRES   REMARKS
ANDERSON       SUNNY     25   3  39 E10       30.60F WCI  15
CP ATTERBURY + SUNNY     28   9  43 E7        30.58F WCI  21
FRANKFORT +    SUNNY     24   9  51 E9        30.60F WCI  15
GREENWOOD *+   SUNNY     25   1  36 SE8       30.58F WCI  16
INDIANAPOLIS   PTSUNNY   25   7  46 E10       30.57F WCI  15
-EAGLE CREEK   SUNNY     24   5  44 SE12      30.57F WCI  13
KOKOMO *+      SUNNY     21   9  58 SE10      30.61F WCI  10
MARION +       PTSUNNY   22   4  46 SE9       30.61F WCI  12
MT COMFORT *+  SUNNY     25  -2  30 E7        30.59F WCI  17
SHELBYVILLE    SUNNY     25   8  48 E7        30.58F WCI  17
ZIONSVILLE +   SUNNY     26   6  41 E8        30.57F WCI  18

$$

INZ033-034-041-042-049-050-058-059-282100-
EAST CENTRAL INDIANA

CITY           SKY/WX    TMP DP  RH WIND       PRES   REMARKS
MUNCIE         MOSUNNY   22   4  46 SE8       30.60F WCI  12

$$

INZ060-061-067>069-081>083-085>088-282100-
SOUTHWEST INDIANA

CITY           SKY/WX    TMP DP  RH WIND       PRES   REMARKS
EVANSVILLE     MOSUNNY   33  15  47 E10       30.54F WCI  25
HUNTINGBURG *+ CLOUDY    34  16  47 SE8       30.54F WCI  27
WASHINGTON +   CLOUDY    30   7  37 E7        30.55F WCI  23

$$

INZ062-063-066-070>080-084-089>092-282100-
SOUTH CENTRAL AND SOUTHEAST INDIANA

CITY           SKY/WX    TMP DP  RH WIND       PRES   REMARKS
BLOOMINGTON    PTSUNNY   28   5  37 E8        30.54F WCI  20
NORTH VERNON + MOSUNNY   30   5  34 E6        30.58F WCI  24
SEYMOUR +      CLOUDY    32  10  40 E3        30.58F

$$



USA.gov is the U.S. government's official web portal to all federal, state and local government web resources and services.